F8BMG-WX Weather Reports


time (UTC)temp
F
wind
direction
speed
knots
gust
knots
rain 1hr
in
rain 24hr
in
rain mn
in
humidity
%
barometer
mb
20260504120223 72 0.0 0.0 0.00 0.00 0.01 99 1011.7
20260504110651 75 0.0 0.0 0.00 0.00 0.01 62 1012.3
20260504110138 75 0.0 0.0 0.00 0.00 0.01 99 1012.3
20260504100604 69 0.0 0.0 0.00 0.00 0.01 99 1012.6
20260504081938 67 0.0 0.0 0.00 0.00 0.01 99 1012.9
20260504081434 66 0.0 0.0 0.00 0.00 0.01 99 1013.0
20260504080931 66 0.0 0.0 0.00 0.00 0.01 99 1013.0
20260504080433 67 0.0 0.0 0.00 0.00 0.01 99 1013.0
20260504070347 65 0.0 0.0 0.00 0.00 0.01 99 1012.9
20260504050713 62 0.0 0.0 0.00 0.00 0.00 99 1012.4
20260504050215 62 0.0 0.0 0.00 0.00 0.00 99 1012.4
20260504045703 62 0.0 0.0 0.00 0.00 0.00 99 1012.5
20260504045200 62 0.0 0.0 0.00 0.00 0.00 99 1012.4
20260504044656 62 0.0 0.0 0.00 0.00 0.00 99 1012.3
20260504044152 62 0.0 0.0 0.00 0.00 0.00 99 1012.3
20260504043648 61 0.0 0.0 0.00 0.00 0.00 99 1012.2
20260504043151 61 0.0 0.0 0.00 0.00 0.00 99 1012.3
20260504042639 61 0.0 0.0 0.00 0.00 0.00 99 1012.3
20260504042135 61 0.0 0.0 0.00 0.00 0.00 99 1012.2
20260504041631 60 0.0 0.0 0.00 0.00 0.00 99 1012.2
20260504041128 61 0.0 0.0 0.00 0.00 0.00 99 1012.2
20260504040625 61 0.0 0.0 0.00 0.00 0.00 99 1012.1
20260504040127 61 0.0 0.0 0.00 0.00 0.00 99 1012.0
20260504035615 61 0.0 0.0 0.00 0.00 0.00 99 1011.9
20260504035111 61 0.0 0.0 0.00 0.00 0.00 99 1011.9
20260504034608 60 0.0 0.0 0.00 0.00 0.00 99 1011.8
20260504034104 61 0.0 0.0 0.00 0.00 0.00 99 1011.8
20260504033600 61 0.0 0.0 0.00 0.00 0.00 99 1012.0
20260504033102 61 0.0 0.0 0.00 0.00 0.00 99 1012.1
20260504032551 60 0.0 0.0 0.00 0.00 0.00 99 1012.2
20260504032047 61 0.0 0.0 0.00 0.00 0.00 99 1012.2
20260504031543 61 0.0 0.0 0.00 0.00 0.00 99 1012.2
20260504031040 60 0.0 0.0 0.00 0.00 0.00 99 1012.1
20260504030536 61 0.0 0.0 0.00 0.00 0.00 99 1012.1
20260504030039 61 0.0 0.0 0.00 0.00 0.00 99 1012.0
20260504025527 60 0.0 0.0 0.00 0.00 0.00 99 1011.9
20260504025023 61 0.0 0.0 0.00 0.00 0.00 99 1012.0
20260504024520 61 0.0 0.0 0.00 0.00 0.00 99 1012.1
20260504024016 60 0.0 0.0 0.00 0.00 0.00 99 1012.1
20260504023512 60 0.0 0.0 0.00 0.00 0.00 99 1012.1
20260504023014 60 0.0 0.0 0.00 0.00 0.00 99 1012.0
20260504022502 60 0.0 0.0 0.00 0.00 0.00 99 1011.8
20260504021959 60 0.0 0.0 0.00 0.00 0.00 99 1011.7
20260504021455 61 0.0 0.0 0.00 0.00 0.00 99 1011.6
20260504020952 61 0.0 0.0 0.00 0.00 0.00 99 1011.7
20260504015950 60 0.0 0.0 0.00 0.00 0.00 99 1011.6
20260504015439 61 0.0 0.0 0.00 0.00 0.00 99 1011.6
20260504014932 60 0.0 0.0 0.00 0.00 0.00 99 1011.5
20260504014429 61 0.0 0.0 0.00 0.00 0.00 99 1011.5
20260504013925 60 0.0 0.0 0.00 0.00 0.00 99 1011.4
20260504013421 61 0.0 0.0 0.00 0.00 0.00 99 1011.5
20260504012924 61 0.0 0.0 0.00 0.00 0.00 99 1011.4
20260504012412 61 0.0 0.0 0.00 0.00 0.00 99 1011.3
20260504011908 61 0.0 0.0 0.00 0.00 0.00 99 1011.3
20260504011404 61 0.0 0.0 0.00 0.00 0.00 99 1011.4
20260504010901 61 0.0 0.0 0.00 0.00 0.00 99 1011.5
20260504010357 61 0.0 0.0 0.00 0.00 0.00 99 1011.6
20260504005900 60 0.0 0.0 0.00 0.00 0.00 99 1011.6
20260504005348 60 0.0 0.0 0.00 0.00 0.00 99 1011.7
20260504004844 60 0.0 0.0 0.00 0.00 0.00 99 1011.9
20260504004341 60 0.0 0.0 0.00 0.00 0.00 99 1011.9
20260504003837 61 0.0 0.0 0.00 0.00 0.00 99 1011.9
20260504003333 60 0.0 0.0 0.00 0.00 0.00 99 1011.9
20260504002835 61 0.0 0.0 0.00 0.00 0.00 99 1011.8
20260504002323 60 0.0 0.0 0.00 0.00 0.00 99 1011.8
20260504001820 61 0.0 0.0 0.00 0.00 0.00 99 1011.9
20260504001316 61 0.0 0.0 0.00 0.00 0.00 99 1011.8
20260504000813 60 0.0 0.0 0.00 0.00 0.00 99 1011.9
20260504000309 61 0.0 0.0 0.00 0.00 0.00 99 1011.9
20260503235812 60 0.0 0.0 0.00 0.00 0.00 99 1011.9
20260503235300 61 0.0 0.0 0.00 0.00 0.00 99 1011.9
20260503234756 61 0.0 0.0 0.00 0.00 0.00 99 1011.8
20260503234253 61 0.0 0.0 0.00 0.00 0.00 99 1011.9
20260503233749 60 0.0 0.0 0.00 0.00 0.00 99 1011.8
20260503233244 61 0.0 0.0 0.00 0.00 0.18 99 1011.9
20260503232747 60 0.0 0.0 0.00 0.00 0.18 99 1011.9
20260503232235 60 0.0 0.0 0.00 0.00 0.18 99 1012.0
20260503231731 60 0.0 0.0 0.00 0.00 0.18 99 1012.1
20260503231228 60 0.0 0.0 0.00 0.00 0.18 99 1012.2
20260503230724 60 0.0 0.0 0.00 0.00 0.18 99 1012.3
20260503230221 60 0.0 0.0 0.00 0.00 0.18 99 1012.4
20260503225723 60 0.0 0.0 0.00 0.00 0.18 99 1012.3
20260503225211 59 0.0 0.0 0.00 0.00 0.18 99 1012.3
20260503224708 59 0.0 0.0 0.00 0.00 0.18 99 1012.3
20260503224204 59 0.0 0.0 0.00 0.00 0.18 99 1012.3
20260503223700 60 0.0 0.0 0.00 0.00 0.18 99 1012.4
20260503223156 60 0.0 0.0 0.00 0.00 0.18 99 1012.4
20260503222659 59 0.0 0.0 0.00 0.00 0.18 99 1012.5
20260503222147 59 0.0 0.0 0.00 0.00 0.18 99 1012.5
20260503221643 59 0.0 0.0 0.00 0.00 0.18 99 1012.6
20260503221139 60 0.0 0.0 0.00 0.00 0.18 99 1012.6
20260503220636 60 0.0 0.0 0.00 0.00 0.18 99 1012.6
20260503220132 60 0.0 0.0 0.00 0.00 0.18 99 1012.6
20260503215635 60 0.0 0.0 0.00 0.00 0.18 99 1012.6
20260503215122 60 0.0 0.0 0.00 0.00 0.18 99 1012.5
20260503214619 60 0.0 0.0 0.00 0.00 0.18 99 1012.5
20260503214115 60 0.0 0.0 0.00 0.00 0.18 99 1012.4
20260503213611 60 0.0 0.0 0.00 0.00 0.18 99 1012.4
20260503213108 60 0.0 0.0 0.00 0.00 0.18 99 1012.4
20260503212610 60 0.0 0.0 0.00 0.00 0.18 99 1012.4
20260503212058 60 0.0 0.0 0.00 0.00 0.18 99 1012.5
20260503211554 60 0.0 0.0 0.00 0.00 0.18 99 1012.6
20260503211051 60 0.0 0.0 0.00 0.00 0.18 99 1012.7
20260503210547 60 0.0 0.0 0.00 0.00 0.18 99 1012.7
20260503210044 60 0.0 0.0 0.00 0.00 0.18 99 1012.6
20260503205546 60 0.0 0.0 0.00 0.00 0.18 99 1012.6
20260503205034 60 0.0 0.0 0.00 0.00 0.18 99 1012.5
20260503204531 60 0.0 0.0 0.00 0.00 0.18 99 1012.5
20260503204027 59 0.0 0.0 0.00 0.00 0.18 99 1012.5
20260503203523 59 0.0 0.0 0.02 0.00 0.18 99 1012.4
20260503203019 60 0.0 0.0 0.02 0.00 0.18 99 1012.4
20260503202521 59 0.0 0.0 0.01 0.00 0.17 99 1012.6
20260503202010 59 0.0 0.0 0.01 0.00 0.17 99 1012.7
20260503201506 59 0.0 0.0 0.01 0.00 0.17 99 1012.7
20260503201003 59 0.0 0.0 0.01 0.00 0.17 99 1012.6
20260503200459 59 0.0 0.0 0.01 0.00 0.17 99 1012.6
20260503195956 59 0.0 0.0 0.01 0.00 0.17 99 1012.6
20260503195458 59 0.0 0.0 0.01 0.00 0.17 99 1012.6
20260503194946 59 0.0 0.0 0.01 0.00 0.17 99 1012.4
20260503194443 59 0.0 0.0 0.01 0.00 0.17 99 1012.4
20260503193939 59 0.0 0.0 0.01 0.00 0.17 99 1012.3
20260503193435 59 0.0 0.0 0.11 0.00 0.16 99 1012.2
20260503192931 59 0.0 0.0 0.11 0.00 0.16 99 1012.1
20260503192434 59 0.0 0.0 0.11 0.00 0.16 99 1012.1
20260503191922 59 0.0 0.0 0.11 0.00 0.16 99 1011.9
20260503191418 59 0.0 0.0 0.11 0.00 0.16 99 1011.7
20260503190915 59 0.0 0.0 0.08 0.00 0.14 99 1011.9
20260503190411 59 0.0 0.0 0.07 0.00 0.13 99 1012.2
20260503185908 59 0.0 0.0 0.06 0.00 0.12 99 1012.3
20260503185410 59 0.0 0.0 0.04 0.00 0.09 99 1012.4
20260503184858 59 0.0 0.0 0.03 0.00 0.08 99 1012.4
20260503184355 60 0.0 0.0 0.02 0.00 0.07 99 1012.4
20260503183851 60 0.0 0.0 0.00 0.00 0.05 99 1012.3
20260503183347 60 0.0 0.0 0.03 0.00 0.04 99 1012.2
20260503182844 60 0.0 0.0 0.01 0.00 0.02 99 1012.2
20260503182345 60 0.0 0.0 0.01 0.00 0.02 99 1012.1
20260503181833 61 0.0 0.0 0.01 0.00 0.02 99 1012.1
20260503181331 61 0.0 0.0 0.00 0.00 0.01 99 1012.0
20260503180828 61 0.0 0.0 0.00 0.00 0.01 99 1012.0
20260503180323 62 0.0 0.0 0.00 0.00 0.01 99 1012.1
20260503175819 62 0.0 0.0 0.00 0.00 0.01 99 1012.0
20260503175322 62 0.0 0.0 0.00 0.00 0.01 99 1012.0
20260503174810 62 0.0 0.0 0.00 0.00 0.01 99 1012.0
20260503174308 63 0.0 0.0 0.00 0.00 0.01 99 1011.9
20260503173803 63 0.0 0.0 0.00 0.00 0.01 99 1011.8
20260503173258 63 0.0 0.0 0.00 0.00 0.01 99 1011.7
20260503172755 63 0.0 0.0 0.00 0.00 0.01 99 1011.6
20260503172257 64 0.0 0.0 0.00 0.00 0.01 99 1011.6
20260503171745 64 0.0 0.0 0.00 0.00 0.01 99 1011.3
20260503170232 64 0.0 0.0 0.00 0.00 0.01 99 1011.1
20260503160144 67 0.0 0.0 0.00 0.00 0.01 99 1010.8
20260503150559 70 0.0 0.0 0.00 0.00 0.01 51 1011.1
20260503130927 71 0.0 0.0 0.00 0.00 0.01 99 1012.8
20260503130423 71 0.0 0.0 0.00 0.00 0.01 99 1012.9